CAN1435 SPJC-LEMD

Flight info

Callsign CAN1435
Flight time N/A
Altitude 35000
Route OPROS UT315 VADOS UM527 GEDOV/N0483F370 UM527 TRAPP DCT 15N050W DCT QUETN/M081F370 DCT 23N040W/M081F390 30N030W 35N020W DCT LUTAK/N0469F400 DCT PORTA DCT OGERO Z409 TLD
Aircraft A388/J-SADE2E3FGHIJ3J4J5M1RWXY/LB1D1

Departure

Time N/A
Airport Jorge Chávez International Airport (SPJC)

Arrival

Time 2026-05-08 08:14
Airport Adolfo Suárez Madrid–Barajas Airport (LEMD)
Time Latitude Longitude Altitude Speed Heading
2026-05-08 07:45 39.65854 -6.67716 40924 ft 530 kts 57°
2026-05-08 07:45 39.69992 -6.59750 40921 ft 530 kts 57°
2026-05-08 07:46 39.74111 -6.51801 40926 ft 530 kts 57°
2026-05-08 07:46 39.77148 -6.45635 40927 ft 528 kts 63°
2026-05-08 07:47 39.79936 -6.36858 40925 ft 524 kts 76°
2026-05-08 07:47 39.81258 -6.27656 40930 ft 520 kts 86°
2026-05-08 07:48 39.82093 -6.18312 40925 ft 520 kts 86°
2026-05-08 07:48 39.82936 -6.08964 40931 ft 520 kts 86°
2026-05-08 07:49 39.83756 -5.99619 40933 ft 520 kts 86°
2026-05-08 07:49 39.84564 -5.90279 40929 ft 520 kts 86°
2026-05-08 07:50 39.85366 -5.80911 40866 ft 517 kts 86°
2026-05-08 07:50 39.85760 -5.76283 40627 ft 512 kts 87°
2026-05-08 07:50 39.86144 -5.71757 40391 ft 508 kts 87°
2026-05-08 07:50 39.86527 -5.67201 40158 ft 508 kts 87°
2026-05-08 07:51 39.86915 -5.62562 39920 ft 508 kts 87°
2026-05-08 07:51 39.87291 -5.58047 39689 ft 508 kts 87°
2026-05-08 07:51 39.87670 -5.53481 39314 ft 509 kts 87°
2026-05-08 07:51 39.88049 -5.48892 38712 ft 510 kts 88°
2026-05-08 07:52 39.88428 -5.44282 37895 ft 512 kts 88°
2026-05-08 07:52 39.88805 -5.39673 37087 ft 512 kts 88°
2026-05-08 07:52 39.89181 -5.35067 36283 ft 512 kts 88°
2026-05-08 07:52 39.89554 -5.30457 35433 ft 512 kts 88°
2026-05-08 07:53 39.89927 -5.25844 34641 ft 510 kts 89°
2026-05-08 07:53 39.90294 -5.21277 33831 ft 508 kts 89°
2026-05-08 07:53 39.90660 -5.16696 32993 ft 504 kts 89°
2026-05-08 07:53 39.91020 -5.12175 32282 ft 498 kts 89°
2026-05-08 07:54 39.91373 -5.07740 31760 ft 489 kts 89°
2026-05-08 07:54 39.91717 -5.03368 31157 ft 482 kts 89°
2026-05-08 07:54 39.92056 -4.99045 30560 ft 477 kts 89°
2026-05-08 07:54 39.92388 -4.94772 29950 ft 472 kts 89°
2026-05-08 07:55 39.92712 -4.90579 29317 ft 466 kts 89°
2026-05-08 07:55 39.93036 -4.86383 28728 ft 458 kts 89°
2026-05-08 07:55 39.93351 -4.82288 28147 ft 451 kts 89°
2026-05-08 07:55 39.93659 -4.78258 27573 ft 444 kts 89°
2026-05-08 07:56 39.93961 -4.74277 27000 ft 438 kts 89°
2026-05-08 07:56 39.94257 -4.70365 26444 ft 433 kts 89°
2026-05-08 07:56 39.94547 -4.66528 25875 ft 428 kts 89°
2026-05-08 07:56 39.94834 -4.62694 25333 ft 423 kts 89°
2026-05-08 07:57 39.95118 -4.58890 24772 ft 419 kts 89°
2026-05-08 07:57 39.95396 -4.55124 24229 ft 416 kts 89°
2026-05-08 07:57 39.95669 -4.51403 23678 ft 413 kts 89°
2026-05-08 07:57 39.95941 -4.47694 23063 ft 409 kts 89°
2026-05-08 07:58 39.96210 -4.44014 22524 ft 404 kts 89°
2026-05-08 07:58 39.96473 -4.40396 21979 ft 399 kts 89°
2026-05-08 07:58 39.96647 -4.36818 21437 ft 390 kts 97°
2026-05-08 07:58 39.96157 -4.33414 20913 ft 377 kts 115°
2026-05-08 07:59 39.94951 -4.30459 20419 ft 365 kts 131°
2026-05-08 07:59 39.93345 -4.27936 19916 ft 359 kts 134°
2026-05-08 07:59 39.91756 -4.25432 19419 ft 357 kts 133°
2026-05-08 07:59 39.90195 -4.22940 18918 ft 354 kts 133°
2026-05-08 08:00 39.88643 -4.20454 18433 ft 353 kts 133°
2026-05-08 08:00 39.87098 -4.17982 17885 ft 351 kts 133°
2026-05-08 08:00 39.85564 -4.15528 17398 ft 348 kts 133°
2026-05-08 08:00 39.84196 -4.12936 16930 ft 349 kts 122°
2026-05-08 08:01 39.83261 -4.10019 16425 ft 352 kts 111°
2026-05-08 08:01 39.82776 -4.06944 15944 ft 353 kts 103°
2026-05-08 08:01 39.82392 -4.03755 15459 ft 350 kts 103°
2026-05-08 08:01 39.81992 -4.00636 14947 ft 348 kts 104°
2026-05-08 08:02 39.81602 -3.97541 14472 ft 347 kts 99°
2026-05-08 08:02 39.81773 -3.94396 13972 ft 354 kts 78°
2026-05-08 08:02 39.82815 -3.91494 13437 ft 359 kts 56°
2026-05-08 08:02 39.84494 -3.89097 12947 ft 357 kts 46°
2026-05-08 08:03 39.86244 -3.86892 12455 ft 354 kts 46°
2026-05-08 08:03 39.88026 -3.84649 11963 ft 350 kts 47°
2026-05-08 08:03 39.89751 -3.82429 11512 ft 346 kts 47°
2026-05-08 08:03 39.91432 -3.80226 11011 ft 343 kts 48°
2026-05-08 08:04 39.92849 -3.78348 10619 ft 341 kts 48°
2026-05-08 08:04 39.94495 -3.76156 10308 ft 333 kts 48°
2026-05-08 08:04 39.96056 -3.74075 10194 ft 320 kts 49°
2026-05-08 08:04 39.97603 -3.72013 10073 ft 308 kts 49°
2026-05-08 08:05 39.99064 -3.70061 9996 ft 301 kts 49°
2026-05-08 08:05 40.00524 -3.68107 9925 ft 301 kts 49°
2026-05-08 08:05 40.01991 -3.66138 9604 ft 304 kts 49°
2026-05-08 08:05 40.03481 -3.64142 9163 ft 303 kts 49°
2026-05-08 08:06 40.04931 -3.62199 8779 ft 301 kts 48°
2026-05-08 08:06 40.06393 -3.60241 8310 ft 302 kts 48°
2026-05-08 08:06 40.07842 -3.58300 8041 ft 296 kts 48°
2026-05-08 08:06 40.09267 -3.56390 7735 ft 291 kts 48°
2026-05-08 08:07 40.10674 -3.54504 7416 ft 288 kts 47°
2026-05-08 08:07 40.12040 -3.52669 7308 ft 277 kts 48°
2026-05-08 08:07 40.13358 -3.50899 7203 ft 266 kts 47°
2026-05-08 08:07 40.14620 -3.49203 7053 ft 259 kts 47°
2026-05-08 08:08 40.15877 -3.47511 6781 ft 258 kts 47°
2026-05-08 08:08 40.17221 -3.46018 6687 ft 249 kts 33°
2026-05-08 08:08 40.18760 -3.45012 6416 ft 250 kts 22°
2026-05-08 08:08 40.20364 -3.44142 6163 ft 248 kts 23°
2026-05-08 08:09 40.21926 -3.43265 6003 ft 249 kts 24°
2026-05-08 08:09 40.23524 -3.42356 6007 ft 251 kts 24°
2026-05-08 08:09 40.25150 -3.41431 6003 ft 252 kts 24°
2026-05-08 08:09 40.26741 -3.40527 6004 ft 253 kts 24°
2026-05-08 08:10 40.28350 -3.39614 5966 ft 252 kts 24°
2026-05-08 08:10 40.29955 -3.38706 5909 ft 248 kts 22°
2026-05-08 08:10 40.31604 -3.38290 5819 ft 238 kts 352°
2026-05-08 08:10 40.33093 -3.39000 5743 ft 224 kts 320°
2026-05-08 08:11 40.34292 -3.40268 5631 ft 219 kts 318°
2026-05-08 08:11 40.35467 -3.41521 5493 ft 214 kts 319°
2026-05-08 08:11 40.36607 -3.42685 5405 ft 202 kts 320°
2026-05-08 08:11 40.37668 -3.43748 5200 ft 187 kts 319°
2026-05-08 08:12 40.38695 -3.44785 4761 ft 184 kts 319°
2026-05-08 08:12 40.39685 -3.45791 4280 ft 177 kts 320°
2026-05-08 08:12 40.40634 -3.46760 3822 ft 173 kts 321°
2026-05-08 08:12 40.41569 -3.47714 3342 ft 170 kts 322°
2026-05-08 08:13 40.42484 -3.48663 3146 ft 167 kts 322°
2026-05-08 08:13 40.43396 -3.49600 2918 ft 165 kts 323°
2026-05-08 08:13 40.44290 -3.50518 2671 ft 161 kts 322°
2026-05-08 08:13 40.45170 -3.51421 2322 ft 161 kts 324°
2026-05-08 08:14 40.46043 -3.52284 2109 ft 151 kts 323°
2026-05-08 08:14 40.46852 -3.53106 1993 ft 142 kts 323°
2026-05-08 08:14 40.47338 -3.53607 1987 ft 122 kts 322°
2026-05-08 08:14 40.47928 -3.54195 1989 ft 49 kts 322°
2026-05-08 08:15 40.48181 -3.54452 1989 ft 43 kts 322°
2026-05-08 08:15 40.48334 -3.54606 1989 ft 40 kts 322°
2026-05-08 08:15 40.48543 -3.54820 1989 ft 37 kts 322°
2026-05-08 08:15 40.48737 -3.55020 1989 ft 34 kts 324°
2026-05-08 08:16 40.48926 -3.55199 1988 ft 33 kts 324°
2026-05-08 08:16 40.49091 -3.55385 1988 ft 31 kts 316°
2026-05-08 08:16 40.49213 -3.55605 1989 ft 29 kts 291°
2026-05-08 08:16 40.49290 -3.55848 1987 ft 28 kts 306°
2026-05-08 08:17 40.49420 -3.56009 1989 ft 24 kts 323°
2026-05-08 08:17 40.49543 -3.56139 1989 ft 18 kts 294°
2026-05-08 08:17 40.49561 -3.56308 1988 ft 20 kts 269°
2026-05-08 08:17 40.49511 -3.56450 1989 ft 17 kts 200°
2026-05-08 08:18 40.49398 -3.56454 1985 ft 17 kts 181°
2026-05-08 08:18 40.49274 -3.56461 1989 ft 19 kts 184°
2026-05-08 08:18 40.49140 -3.56472 1989 ft 19 kts 180°
2026-05-08 08:18 40.49066 -3.56458 1988 ft 0 kts 172°
2026-05-08 08:19 40.49060 -3.56457 1989 ft 0 kts 172°
2026-05-08 08:20 40.49058 -3.56457 1989 ft 2 kts 172°
2026-05-08 08:21 40.48990 -3.56454 1986 ft 12 kts 181°
2026-05-08 08:21 40.48896 -3.56459 1989 ft 14 kts 196°
2026-05-08 08:21 40.48859 -3.56548 1985 ft 12 kts 268°
2026-05-08 08:21 40.48861 -3.56675 1985 ft 15 kts 273°
2026-05-08 08:22 40.48864 -3.56829 1985 ft 18 kts 269°
2026-05-08 08:22 40.48870 -3.56972 1988 ft 12 kts 304°
2026-05-08 08:22 40.48953 -3.57010 1989 ft 15 kts 359°
2026-05-08 08:22 40.49046 -3.57050 1988 ft 15 kts 301°
2026-05-08 08:23 40.49125 -3.57127 1990 ft 15 kts 356°
2026-05-08 08:23 40.49240 -3.57127 1988 ft 16 kts 17°
2026-05-08 08:23 40.49304 -3.57035 1988 ft 12 kts 42°
2026-05-08 08:23 40.49393 -3.57013 1987 ft 14 kts
2026-05-08 08:24 40.49457 -3.56998 1990 ft 7 kts 51°
2026-05-08 08:24 40.49469 -3.56935 1988 ft 6 kts 89°
2026-05-08 08:24 40.49469 -3.56909 1985 ft 3 kts 89°
2026-05-08 08:24 40.49470 -3.56900 1985 ft 1 kts 89°
2026-05-08 08:25 40.49469 -3.56888 1985 ft 2 kts 92°
2026-05-08 08:25 40.49469 -3.56877 1985 ft 2 kts 92°
2026-05-08 08:25 40.49469 -3.56867 1985 ft 0 kts 92°